Regional Weather Roundup
Issued by NWS Sioux Falls, SD

Home | Current Version | Previous Version | Graphics & Text | Print | Product List | Glossary Off
Versions: 1 2 3 4 5 6 7 8 9 10 11 12 13 14 15 16 17 18 19 20 21 22 23 24 25 26 27 28 29 30 31 32 33 34 35 36 37 38 39 40 41 42 43 44 45 46 47 48 49 50

713
ASUS43 KFSD 221310
RWRFSD

WEATHER ROUNDUP FOR SE SOUTH DAKOTA/SW MINNESOTA/NW IOWA
NATIONAL WEATHER SERVICE SIOUX FALLS SD
700 AM CST WED NOV 22 2017

NOTE: "FAIR" INDICATES FEW OR NO CLOUDS BELOW 12,000 FEET WITH NO
SIGNIFICANT WEATHER AND OR OBSTRUCTIONS TO VISIBILITY.


SDZ038>040-050-052>070-221400-
SOUTHEAST SOUTH DAKOTA

CITY           SKY/WX    TMP DP  RH WIND       PRES   REMARKS
BROOKINGS      CLOUDY    12   7  80 S8        30.24F WCI   0
CHAMBERLAIN    CLOUDY    21  17  85 SE9       30.15F WCI  11
HURON          CLEAR     14   9  80 SE12      30.21F WCI   0
MADISON        FAIR      10  10 100 S7        30.24F WCI   0
MITCHELL       CLOUDY    14  10  84 SE8       30.25F WCI   3
SIOUX FALLS    PTCLDY    14   8  77 S6        30.29S WCI   5
WINNER         FAIR      30  18  60 S9        30.12S WCI  22
YANKTON        CLOUDY    11   8  88 E5        30.30F WCI   3
$$

MNZ071-072-080-081-089-090-097-098-221400-
SOUTHWEST MINNESOTA

CITY           SKY/WX    TMP DP  RH WIND       PRES   REMARKS
FAIRMONT       CLOUDY    11   7  84 SW6       30.33S WCI   1
JACKSON        CLOUDY    12   7  79 CALM      30.30S
LUVERNE        CLOUDY     7   3  85 CALM      30.31R
MARSHALL       CLOUDY    12   7  80 S7        30.29F WCI   1
MONTEVIDEO     CLOUDY    10   7  85 SW3       30.29F
PIPESTONE      CLEAR      9   3  78 SW5       30.25F WCI   0
REDWOOD FALLS  CLOUDY    11   5  77 SW5       30.31S WCI   3
WINDOM         CLOUDY    10   0  61 CALM      30.29F
WORTHINGTON    CLOUDY    12   7  80 S6        30.29S WCI   3
$$

IAZ001>003-012>014-020>022-031-032-NEZ013-014-SDZ071-221400-
NORTHWEST IOWA

CITY           SKY/WX    TMP DP  RH WIND       PRES   REMARKS
CHEROKEE       CLOUDY    10   8  92 CALM      30.34S
DENISON        CLOUDY    12   9  85 SE3       30.37S
ESTHERVILLE    CLOUDY     8   5  87 SW7       30.31F WCI  -3
LE MARS        CLOUDY    10   7  85 S3        30.34S
ORANGE CITY    CLOUDY    10   9  92 S3        30.31S
SHELDON        CLOUDY     9   5  85 S5        30.30S WCI   0
SIOUX CITY     CLOUDY    10   6  84 SE5       30.36F WCI   2
SPENCER        CLOUDY     8   4  83 SW5       30.32F WCI   0
STORM LAKE     CLOUDY    12   7  79 SW7       30.32F WCI   2
$$

ABBREVIATIONS USED IN REMARKS
   TC - TEMPERATURE IN CELSIUS
  WCI - WIND CHILL INDEX
   HX - HEAT INDEX
  VSB - VISIBILITY





USA.gov is the U.S. government's official web portal to all federal, state and local government web resources and services.